Location: Unspecified
(0.0000°N, 0.0000°E)
Time: 01:39:05
(UTC+00:00)

SR - Pass Details

Date: 26 November 2019
Orbit: 573 x 882 km, 66.7° (Epoch: 11 December)

Event Time Altitude Azimuth Distance (km) Brightness Sun altitude
Rises 23:37:37 0° 330° (NNW) 3,340 - -68.8°
Reaches altitude 10° 23:40:13 10° 325° (NW) 2,367 - -68.9°
Maximum altitude 23:45:26 48° 251° (WSW) 977 - -69.0°
Drops below altitude 10° 23:50:14 10° 177° (S) 2,177 - -69.0°
Sets 23:52:32 0° 171° (S) 3,047 - -68.9°
